DateTimeUTC,F1_A11,F1_S11,BsB_S11,BsG_S11,BsR_S11,BbsB_S11,BbsG_S11,BbsR_S11,BaB_A11,BaG_A11,BaR_A11,Tu_S11,T_S11,Uu_S11,U_S11,P_S11,T1_A11
2021-07-08T20:00:00Z,00000200,20000000,,,,,,,-000.04,0000.11,0000.15,18.4,25.0,03.6,02.4,0662.2,31.0
2021-07-08T20:01:00Z,00000200,20000000,,,,,,,-000.12,-000.08,-000.20,18.4,25.0,03.6,02.4,0662.2,31.0
2021-07-08T20:02:00Z,00000200,20000000,,,,,,,-000.03,-000.16,0000.06,18.4,25.0,03.5,02.3,0662.3,31.0
2021-07-08T20:03:00Z,00000200,60000000,,,,,,,0000.01,0000.11,-000.20,18.4,25.0,03.3,02.2,0662.3,30.9
2021-07-08T20:04:00Z,00000200,40000000,0000.96,0000.10,-000.04,-000.33,0000.07,0000.02,-000.10,0000.09,0000.17,18.3,24.8,03.4,02.3,0663.1,30.9
2021-07-08T20:05:00Z,00000200,00000000,0000.05,-000.13,0000.13,0000.31,0000.02,0000.08,0000.80,0000.50,0000.54,18.3,24.7,03.6,02.4,0663.2,30.9
2021-07-08T20:06:00Z,00000200,00000000,0000.35,-000.10,0000.08,-000.27,-000.04,0000.28,-000.42,-000.44,-000.40,18.3,24.7,03.6,02.4,0663.2,31.0
2021-07-08T20:07:00Z,00000200,00000000,0000.55,0000.27,-000.05,-000.30,0000.11,0000.29,0000.08,0000.15,0000.10,18.4,24.7,03.6,02.4,0663.3,31.0
2021-07-08T20:08:00Z,00000200,00000000,0000.18,0000.12,0000.10,-000.48,-000.14,-000.04,-000.00,-000.09,0000.23,18.5,24.8,03.5,02.4,0663.3,31.0
2021-07-08T20:09:00Z,00000200,00000000,0000.24,0000.08,-000.36,-000.05,-000.13,0000.22,-000.00,0000.24,-000.05,18.6,24.8,03.5,02.4,0663.3,31.0
2021-07-08T20:10:00Z,00000200,00000000,0000.43,0000.25,0000.11,-000.52,-000.11,0000.16,-000.29,-000.11,-000.20,18.6,24.8,03.4,02.4,0663.3,31.0
2021-07-08T20:11:00Z,00000200,00000000,0000.52,0000.24,0000.05,-000.46,-000.26,0000.25,0000.19,0000.10,0000.02,18.6,24.8,03.6,02.4,0663.3,31.0
2021-07-08T20:12:00Z,00000200,00000000,0000.77,0000.19,0000.17,-000.31,-000.08,-000.10,-000.16,-000.15,-000.19,18.5,24.8,03.5,02.4,0663.4,31.0
2021-07-08T20:13:00Z,00000200,00000000,-000.35,0000.18,0000.05,-000.08,-000.11,-000.08,0000.40,-000.26,0000.24,18.5,24.8,03.6,02.4,0663.5,31.0
2021-07-08T20:14:00Z,00000200,00000000,0000.55,0000.18,0000.10,-000.10,-000.13,-000.07,-000.34,-000.01,-000.16,18.4,24.7,03.5,02.4,0663.4,31.0
2021-07-08T20:15:00Z,00000200,00000000,0000.29,0000.08,-000.02,-000.49,-000.07,0000.13,0000.12,0000.20,0000.15,18.4,24.7,03.4,02.3,0663.5,30.9
2021-07-08T20:16:00Z,00000200,00000000,0000.46,0000.08,0000.27,-000.19,0000.15,-000.08,-000.05,-000.08,-000.29,18.3,24.7,03.4,02.3,0663.4,30.9
2021-07-08T20:17:00Z,00000200,00000000,-000.10,0000.40,-000.02,-000.28,0000.15,-000.33,0000.24,0000.28,0000.42,18.3,24.6,03.6,02.5,0663.4,30.9
2021-07-08T20:18:00Z,00000200,00000000,0000.25,0000.04,0000.23,-000.31,0000.02,-000.18,-000.09,0000.03,-000.01,18.2,24.6,03.6,02.4,0663.3,30.9
2021-07-08T20:19:00Z,00000200,00000000,0000.62,0000.35,-000.17,0000.04,0000.08,0000.15,0000.16,-000.01,-000.21,18.2,24.6,03.6,02.4,0663.3,30.9
2021-07-08T20:20:00Z,00000200,00000000,0000.29,0000.36,0000.30,0000.11,-000.20,0000.08,0000.39,0000.24,0000.32,18.2,24.6,03.5,02.3,0663.3,30.9
2021-07-08T20:21:00Z,00000200,00000000,0000.63,0000.26,-000.10,0000.04,-000.01,0000.14,-000.56,-000.07,-000.06,18.2,24.6,03.6,02.4,0663.3,31.0
2021-07-08T20:22:00Z,00000200,00000000,0000.43,0000.23,0000.16,-000.79,0000.01,-000.02,0000.51,0000.18,0000.39,18.3,24.6,03.6,02.5,0663.3,31.0
2021-07-08T20:23:00Z,00000200,00000000,0000.52,0000.24,-000.14,-000.41,-000.14,-000.04,-000.14,0000.14,0000.02,18.4,24.6,03.6,02.5,0663.4,31.0
2021-07-08T20:24:00Z,00000200,00000000,-000.33,0000.27,-000.27,-000.23,-000.11,-000.01,0000.00,-000.16,0000.17,18.5,24.7,03.6,02.5,0663.3,31.0
2021-07-08T20:25:00Z,00000200,00000000,0000.58,0000.18,0000.07,0000.05,0000.00,-000.06,-000.02,-000.42,-000.41,18.5,24.7,03.6,02.5,0663.5,31.0
2021-07-08T20:26:00Z,00000200,00000000,0000.46,-000.03,-000.16,0000.39,-000.00,0000.31,-000.09,0000.05,-000.20,18.5,24.7,03.6,02.4,0663.4,31.0
2021-07-08T20:27:00Z,00000200,00000000,0000.13,0000.11,-000.16,0000.33,-000.07,-000.05,0000.61,0000.13,-000.12,18.5,24.7,03.5,02.4,0663.5,31.0
2021-07-08T20:28:00Z,00000200,00000000,0000.43,0000.16,-000.16,-000.06,-000.00,0000.07,-000.64,0000.24,0000.30,18.4,24.7,03.5,02.4,0663.5,30.9
2021-07-08T20:29:00Z,00000200,00000000,0000.70,0000.21,0000.11,-000.27,0000.05,0000.01,-000.13,-000.35,-000.38,18.4,24.6,03.5,02.4,0663.4,30.9
2021-07-08T20:30:00Z,00000200,00000000,0000.81,0000.23,0000.15,-000.21,-000.09,0000.16,0000.40,0000.12,0000.26,18.3,24.6,03.4,02.3,0663.6,30.9
2021-07-08T20:31:00Z,00000200,00000000,0000.61,0000.05,-000.25,-000.12,-000.04,-000.19,-000.34,0000.21,0000.01,18.2,24.6,03.5,02.4,0663.7,31.0
2021-07-08T20:32:00Z,00000200,00000000,0000.64,0000.24,-000.14,-000.41,-000.14,-000.05,-000.05,-000.23,0000.05,18.2,24.5,03.5,02.4,0663.6,30.9
2021-07-08T20:33:00Z,00000200,00000000,-000.08,0000.18,0000.29,-000.68,-000.18,0000.16,0000.22,-000.06,0000.27,18.2,24.5,03.5,02.4,0663.5,30.9
2021-07-08T20:34:00Z,00000200,00000000,0000.38,0000.05,-000.04,-000.16,0000.02,0000.11,0000.07,0000.51,-000.12,18.1,24.5,03.4,02.3,0663.6,30.9
2021-07-08T20:35:00Z,00000200,00000000,0000.13,0000.13,0000.28,-000.30,0000.06,0000.09,0000.06,-000.27,0000.09,18.1,24.5,03.4,02.3,0663.6,30.9
2021-07-08T20:36:00Z,00000200,00000000,0000.49,0000.12,0000.18,-000.38,0000.33,0000.15,-000.17,0000.37,-000.21,18.2,24.5,03.5,02.4,0663.6,31.0
2021-07-08T20:37:00Z,00000200,00000000,0000.39,0000.36,-000.05,-000.57,0000.05,0000.12,0000.05,-000.19,-000.00,18.3,24.5,03.4,02.3,0663.7,31.0
2021-07-08T20:38:00Z,00000200,00000000,0000.89,0000.10,0000.21,0000.09,0000.02,0000.03,0000.34,0000.15,0000.06,18.3,24.6,03.5,02.4,0663.7,31.0
2021-07-08T20:39:00Z,00000200,00000000,0000.35,0000.33,-000.04,0000.03,-000.06,-000.04,0000.08,-000.06,0000.21,18.4,24.6,03.3,02.3,0663.7,31.0
2021-07-08T20:40:00Z,00000200,00000000,0000.74,0000.05,-000.21,-000.40,-000.01,-000.03,0000.03,0000.24,-000.19,18.5,24.6,03.4,02.3,0663.8,31.0
2021-07-08T20:41:00Z,00000200,00000000,0000.54,0000.23,-000.17,-000.39,-000.01,-000.06,0000.16,-000.09,0000.26,18.5,24.7,03.4,02.3,0663.7,31.0
2021-07-08T20:42:00Z,00000200,00000000,0000.64,0000.23,0000.05,-000.48,-000.12,0000.09,-000.11,0000.03,0000.00,18.6,24.7,03.5,02.4,0663.7,31.0
2021-07-08T20:43:00Z,00000200,00000000,-000.04,0000.27,-000.12,-000.56,0000.08,0000.14,-000.26,-000.15,0000.07,18.6,24.7,03.5,02.4,0663.7,31.0
2021-07-08T20:44:00Z,00000200,00000000,0000.50,0000.19,0000.03,0000.13,-000.11,0000.27,0000.13,-000.02,-000.10,18.5,24.7,03.4,02.3,0663.6,31.0
2021-07-08T20:45:00Z,00000200,00000000,0001.07,0000.17,-000.05,-000.45,0000.22,0000.34,-000.48,-000.06,0000.11,18.4,24.7,03.4,02.3,0663.7,31.0
2021-07-08T20:46:00Z,00000200,00000000,0000.82,0000.08,0000.15,-000.20,-000.10,-000.22,0000.66,0000.10,-000.19,18.4,24.6,03.3,02.3,0663.7,31.0
2021-07-08T20:47:00Z,00000200,00000000,0000.52,0000.02,0000.09,-000.01,-000.01,0000.08,-000.25,-000.06,0000.03,18.3,24.6,03.4,02.3,0663.6,31.0
2021-07-08T20:48:00Z,00000200,00000000,0001.13,0000.01,0000.34,-000.31,-000.05,0000.20,0000.17,-000.10,-000.03,18.3,24.6,03.4,02.3,0663.6,30.9
2021-07-08T20:49:00Z,00000200,00000000,0000.56,0000.21,0000.11,0000.05,0000.12,0000.26,-000.09,0000.08,0000.12,18.3,24.5,03.4,02.3,0663.6,30.9
2021-07-08T20:50:00Z,00000200,00000000,0000.20,0000.19,0000.12,-000.54,0000.05,-000.18,0000.03,0000.02,-000.26,18.2,24.5,03.4,02.3,0663.6,30.9
2021-07-08T20:51:00Z,00000200,00000000,0000.09,0000.23,-000.21,-000.65,0000.06,-000.06,0000.07,0000.18,0000.50,18.3,24.5,03.3,02.3,0663.7,31.0
2021-07-08T20:52:00Z,00000200,00000000,-000.02,0000.48,-000.16,-000.59,0000.05,-000.24,0000.15,0000.12,0000.04,18.4,24.6,03.3,02.3,0663.7,31.0
2021-07-08T20:53:00Z,00000200,00000000,0000.68,0000.17,0000.14,0000.57,0000.04,-000.04,0000.10,0000.12,0000.02,18.5,24.6,03.4,02.3,0663.8,31.0
2021-07-08T20:54:00Z,00000200,00000000,0000.90,0000.45,-000.18,-000.25,0000.18,0000.11,0000.16,0000.11,-000.16,18.5,24.7,03.3,02.3,0663.9,31.0
2021-07-08T20:55:00Z,00000200,00000000,0000.71,0000.21,0000.16,-001.24,0000.02,0000.11,-000.30,-000.47,-000.09,18.6,24.7,03.3,02.3,0663.8,31.0
2021-07-08T20:56:00Z,00000200,00000000,0000.94,0000.18,0000.11,-000.62,0000.08,0000.24,-000.15,0000.19,0000.12,18.6,24.7,03.2,02.2,0663.8,31.0
2021-07-08T20:57:00Z,00000200,40000000,,,,,,,0000.23,-000.02,0000.07,18.6,24.7,03.5,02.4,0663.9,31.0
2021-07-08T20:58:00Z,00000200,60000000,,,,,,,0000.06,-000.16,-000.18,18.3,24.8,03.3,02.2,0662.8,31.0
2021-07-08T20:59:00Z,00000200,20000000,,,,,,,-000.33,-000.04,0000.00,18.2,24.9,03.2,02.1,0662.8,31.0
